Location: Newark
(55.7083°N, 13.1992°E)
Time: 06:43:02
(UTC+00:00)

N. Korean satellite - Pass Details

Date: 27 January 2020
Orbit: 456 x 505 km, 97.2° (Epoch: 27 February)

Event Time Altitude Azimuth Distance (km) Brightness Sun altitude
Rises 04:48:44 0° 17° (NNE) 2,539 10.4 -19.6°
Reaches altitude 10° 04:50:50 10° 23° (NNE) 1,664 9.5 -19.3°
Maximum altitude 04:54:19 49° 100° (E) 632 7.5 -18.8°
Drops below altitude 10° 04:57:50 10° 176° (S) 1,677 9.4 -18.3°
Sets 04:59:58 0° 182° (S) 2,562 10.3 -18.0°
